Location: Samoth
(37.3328°N, 88.7876°W)
Time: 02:03:39
(UTC+00:00)

Envisat - Pass Details

Date: 26 September 2021
Orbit: 764 x 766 km, 98.2° (Epoch: 15 October)

Event Time Altitude Azimuth Distance (km) Brightness Sun altitude
Rises 10:03:14 0° 28° (NNE) 3,235 6.9 -21.2°
Reaches altitude 10° 10:06:04 10° 44° (NE) 2,304 6.3 -20.6°
Maximum altitude 10:09:56 22° 94° (E) 1,634 5.5 -19.9°
Drops below altitude 10° 10:13:47 10° 144° (SE) 2,292 5.7 -19.1°
Sets 10:16:35 0° 159° (SSE) 3,213 6.3 -18.6°
